N3TJJ-2 Weather Reports


time (UTC)temp
C
wind
direction
speed
KPH
gust
KPH
rain 1hr
cm
rain 24hr
cm
rain mn
cm
humidity
%
barometer
mb
20260507000553 18 100 3.2 8.0 0.00 0.43 0.43 79 1009.2
20260506235941 18 121 3.2 6.4 0.00 0.43 0.43 79 1009.2
20260506235511 18 82 1.6 4.8 0.00 0.43 0.43 80 1009.1
20260506234815 18 0 0.0 4.8 0.00 0.43 0.43 80 1009.0
20260506234120 18 75 1.6 6.4 0.00 0.43 0.43 80 1008.9
20260506233527 18 71 1.6 8.0 0.00 0.43 0.43 80 1008.9
20260506233046 18 67 3.2 8.0 0.00 0.43 0.43 80 1008.9
20260506232801 18 75 4.8 9.7 0.00 0.43 0.43 80 1009.0
20260506231717 18 81 4.8 9.7 0.00 0.43 0.43 80 1009.0
20260506231118 18 0 0.0 8.0 0.00 0.43 0.43 80 1008.9
20260506230746 18 78 3.2 8.0 0.00 0.43 0.43 80 1008.9
20260506225917 18 78 4.8 11.3 0.00 0.43 0.43 81 1008.9
20260506225316 18 77 6.4 11.3 0.00 0.43 0.43 81 1008.8
20260506224725 18 70 3.2 11.3 0.00 0.43 0.43 81 1008.8
20260506224127 18 79 6.4 11.3 0.00 0.43 0.43 81 1008.8
20260506223621 18 74 4.8 12.9 0.00 0.43 0.43 81 1008.8
20260506222917 18 79 6.4 14.5 0.00 0.43 0.43 81 1008.9
20260506222545 18 81 8.0 14.5 0.00 0.43 0.43 81 1008.8
20260506221809 19 78 8.0 14.5 0.00 0.43 0.43 81 1008.7
20260506221259 19 53 3.2 11.3 0.00 0.43 0.43 81 1008.5
20260506220526 19 69 3.2 12.9 0.00 0.43 0.43 81 1008.5
20260506220136 18 83 9.7 17.7 0.00 0.43 0.43 81 1008.6
20260506214725 18 84 8.0 17.7 0.00 0.43 0.43 81 1008.7
20260506214129 18 80 8.0 14.5 0.00 0.43 0.43 81 1008.7
20260506213522 18 84 9.7 19.3 0.00 0.43 0.43 81 1008.4
20260506213437 19 72 6.4 19.3 0.00 0.43 0.43 81 1008.4
20260506212317 19 77 9.7 24.1 0.00 0.43 0.43 81 1008.3
20260506211717 18 86 11.3 19.3 0.00 0.43 0.43 81 1008.3
20260506211117 18 82 9.7 20.9 0.00 0.43 0.43 81 1008.2
20260506210616 18 75 11.3 22.5 0.00 0.43 0.43 80 1008.1
20260506205917 18 86 12.9 22.5 0.00 0.43 0.43 81 1008.0
20260506205327 18 80 9.7 22.5 0.00 0.43 0.43 80 1008.0
20260506204717 18 87 12.9 19.3 0.00 0.43 0.43 81 1008.2
20260506204140 18 84 11.3 22.5 0.00 0.43 0.43 80 1008.1
20260506203529 18 81 12.9 22.5 0.00 0.43 0.43 80 1008.1
20260506202918 18 81 9.7 22.5 0.00 0.43 0.43 80 1008.1
20260506202610 18 84 12.9 27.4 0.00 0.43 0.43 80 1008.1
20260506201811 18 84 19.3 29.0 0.00 0.43 0.43 80 1008.0
20260506200148 18 86 14.5 27.4 0.00 0.43 0.43 80 1008.1
20260506195418 18 83 14.5 29.0 0.00 0.43 0.43 78 1008.1
20260506194801 18 86 16.1 29.0 0.00 0.43 0.43 79 1008.2
20260506194223 18 83 16.1 35.4 0.00 0.43 0.43 80 1008.2
20260506193526 18 93 25.7 35.4 0.00 0.43 0.43 80 1008.2
20260506192917 18 89 17.7 32.2 0.00 0.43 0.43 77 1008.4
20260506192524 18 86 17.7 32.2 0.00 0.43 0.43 76 1008.3
20260506192154 18 78 14.5 24.1 0.00 0.43 0.43 71 1008.3
20260506191340 17 78 12.9 25.7 0.00 0.43 0.43 63 1008.5
20260506185929 17 86 14.5 30.6 0.00 0.43 0.43 53 1008.4
20260506185318 17 87 12.9 30.6 0.00 0.43 0.43 35 1008.5
20260506184719 17 81 19.3 27.4 0.00 0.43 0.43 25 1008.6
20260506184116 17 61 14.5 22.5 0.00 0.43 0.43 24 1008.5
20260506183518 16 79 12.9 27.4 0.00 0.43 0.43 25 1008.8
20260506182920 16 74 11.3 19.3 0.00 0.43 0.43 25 1008.9
20260506182318 16 54 11.3 19.3 0.00 0.43 0.43 26 1008.9
20260506181717 16 71 12.9 19.3 0.00 0.43 0.43 26 1009.1
20260506181116 15 64 11.3 22.5 0.00 0.43 0.43 26 1009.1
20260506180520 15 65 12.9 20.9 0.00 0.43 0.43 27 1009.2
20260506175917 15 69 12.9 29.0 0.00 0.43 0.43 27 1009.2
20260506175323 15 76 16.1 29.0 0.00 0.43 0.43 27 1009.3
20260506174717 15 74 12.9 29.0 0.00 0.43 0.43 27 1009.3
20260506174119 15 73 16.1 29.0 0.00 0.43 0.43 27 1009.3
20260506173535 15 64 12.9 27.4 0.00 0.43 0.43 27 1009.2
20260506172921 15 73 16.1 27.4 0.00 0.43 0.43 27 1009.1
20260506172321 15 63 12.9 29.0 0.00 0.43 0.43 27 1009.1
20260506171718 15 55 12.9 29.0 0.00 0.43 0.43 27 1009.1
20260506171121 15 73 14.5 25.7 0.00 0.43 0.43 27 1009.0
20260506170517 15 50 12.9 22.5 0.00 0.43 0.43 27 1009.0
20260506165926 15 54 12.9 27.4 0.00 0.43 0.43 27 1009.1
20260506165318 15 55 14.5 27.4 0.03 0.43 0.43 28 1009.2
20260506164719 15 56 11.3 27.4 0.03 0.43 0.43 28 1009.2
20260506164120 15 62 12.9 27.4 0.05 0.43 0.43 28 1009.3
20260506163522 15 55 12.9 24.1 0.05 0.43 0.43 28 1009.2
20260506162917 15 50 14.5 25.7 0.05 0.43 0.43 28 1009.4
20260506162316 15 57 16.1 33.8 0.05 0.43 0.43 28 1009.3
20260506161722 15 43 16.1 37.0 0.08 0.43 0.43 28 1009.4
20260506161117 15 32 12.9 27.4 0.08 0.43 0.43 27 1009.3
20260506160517 15 37 9.7 32.2 0.10 0.43 0.43 28 1009.0
20260506155937 15 29 16.1 32.2 0.13 0.43 0.43 28 1008.8
20260506155322 15 29 17.7 29.0 0.13 0.41 0.41 28 1008.7
20260506154720 15 31 14.5 27.4 0.15 0.41 0.41 28 1009.0
20260506154122 15 42 14.5 30.6 0.15 0.38 0.38 28 1009.4
20260506153527 15 31 12.9 25.7 0.18 0.38 0.38 28 1009.8
20260506152917 15 48 14.5 25.7 0.18 0.38 0.38 29 1009.9
20260506152317 15 48 14.5 22.5 0.20 0.38 0.38 29 1010.1
20260506151731 15 36 11.3 22.5 0.18 0.36 0.36 29 1010.1
20260506151129 15 40 12.9 20.9 0.20 0.36 0.36 29 1010.2
20260506150519 15 37 9.7 25.7 0.18 0.33 0.33 29 1010.1
20260506145918 15 36 11.3 30.6 0.18 0.30 0.30 30 1010.3
20260506145321 15 31 12.9 30.6 0.18 0.28 0.28 30 1010.3
20260506144726 15 41 12.9 22.5 0.15 0.25 0.25 30 1010.1
20260506144116 15 35 14.5 25.7 0.15 0.23 0.23 30 1010.1
20260506143524 15 34 11.3 27.4 0.15 0.20 0.20 30 1009.9
20260506142919 15 39 16.1 25.7 0.15 0.20 0.20 31 1010.0
20260506142316 15 35 9.7 22.5 0.15 0.18 0.18 31 1010.0
20260506141801 15 45 9.7 22.5 0.15 0.18 0.18 31 1010.1
20260506141116 15 40 11.3 20.9 0.13 0.15 0.15 32 1010.0
20260506140519 15 33 9.7 19.3 0.13 0.15 0.15 32 1010.1
20260506135927 15 33 8.0 20.9 0.13 0.13 0.13 33 1009.9
20260506135323 15 46 11.3 20.9 0.10 0.10 0.10 33 1009.9
20260506134825 15 32 9.7 17.7 0.10 0.10 0.10 33 1010.1
20260506134131 15 49 9.7 17.7 0.08 0.08 0.08 34 1010.1
20260506133518 15 44 6.4 16.1 0.05 0.05 0.05 34 1010.1
20260506132921 15 28 9.7 20.9 0.05 0.05 0.05 35 1010.1
20260506132319 15 40 9.7 16.1 0.03 0.03 0.03 35 1010.1
20260506131740 15 28 4.8 16.1 0.03 0.03 0.03 35 1010.1
20260506131116 15 36 9.7 17.7 0.03 0.03 0.03 36 1010.2
20260506130518 15 39 6.4 19.3 0.03 0.03 0.03 37 1010.4
20260506125935 14 37 8.0 19.3 0.00 0.00 0.00 39 1010.3
20260506125317 14 39 6.4 14.5 0.00 0.00 0.00 40 1010.3
20260506124718 14 30 6.4 17.7 0.00 0.00 0.00 41 1010.3
20260506124133 14 46 9.7 22.5 0.00 0.00 0.00 43 1010.4
20260506123522 14 51 8.0 22.5 0.00 0.00 0.00 45 1010.6
20260506122916 14 49 8.0 17.7 0.00 0.00 0.00 48 1010.6
20260506122316 14 49 6.4 20.9 0.00 0.00 0.00 51 1010.6
20260506121719 14 47 11.3 22.5 0.00 0.00 0.00 57 1010.5
20260506121119 15 28 9.7 22.5 0.00 0.00 0.00 66 1010.3
20260506120519 16 56 12.9 22.5 0.00 0.00 0.00 79 1010.3
20260506115919 17 60 11.3 22.5 0.00 0.00 0.00 81 1010.3
20260506115316 17 52 12.9 30.6 0.00 0.00 0.00 80 1010.1
20260506114717 17 40 11.3 30.6 0.00 0.00 0.00 80 1010.0
20260506114121 17 55 11.3 24.1 0.00 0.00 0.00 80 1010.0
20260506113518 17 37 12.9 24.1 0.00 0.00 0.00 80 1010.0
20260506112919 17 51 9.7 27.4 0.00 0.00 0.00 80 1010.0
20260506112319 17 57 14.5 27.4 0.00 0.00 0.00 80 1009.9
20260506111717 17 47 16.1 32.2 0.00 0.00 0.00 80 1009.8
20260506111116 17 43 20.9 32.2 0.00 0.00 0.00 80 1009.6
20260506110518 17 49 12.9 25.7 0.00 0.00 0.00 80 1009.6
20260506105916 17 33 16.1 27.4 0.00 0.00 0.00 80 1009.5
20260506105319 17 36 14.5 33.8 0.00 0.00 0.00 79 1009.5
20260506104729 17 38 16.1 33.8 0.00 0.00 0.00 79 1009.5
20260506104118 17 49 19.3 33.8 0.00 0.00 0.00 79 1009.5
20260506103518 17 39 20.9 32.2 0.00 0.00 0.00 79 1009.4
20260506102917 17 39 14.5 32.2 0.00 0.00 0.00 79 1009.3
20260506102319 -17 0.0 0.0 0.00 0.00 0.00 1009.3
20260506101716 -17 0.0 0.0 0.00 0.00 0.00 1009.4
20260506101116 -17 0.0 0.0 0.00 0.00 0.00 1009.2
20260506100519 -17 0.0 0.0 0.00 0.00 0.00 1009.3
20260506095918 -17 0.0 0.0 0.00 0.00 0.00 1009.2
20260506095316 -17 0.0 0.0 0.00 0.00 0.00 1009.3
20260506094718 -17 0.0 0.0 0.00 0.00 0.00 1009.3
20260506094116 -17 0.0 0.0 0.00 0.00 0.00 1009.3
20260506093520 -17 0.0 0.0 0.00 0.00 0.00 1009.3
20260506092920 -17 0.0 0.0 0.00 0.00 0.00 1009.3
20260506092320 -17 0.0 0.0 0.00 0.00 0.00 1009.3
20260506091720 -17 0.0 0.0 0.00 0.00 0.00 1009.4
20260506091116 -17 0.0 0.0 0.00 0.00 0.00 1009.5
20260506090517 -17 0.0 0.0 0.00 0.00 0.00 1009.5
20260506085916 -17 0.0 0.0 0.00 0.00 0.00 1009.4
20260506085316 -17 0.0 0.0 0.00 0.00 0.00 1009.5
20260506084717 -17 0.0 0.0 0.00 0.00 0.00 1009.6
20260506084116 -17 0.0 0.0 0.00 0.00 0.00 1009.5
20260506083519 -17 0.0 0.0 0.00 0.00 0.00 1009.6
20260506082916 -17 0.0 0.0 0.00 0.00 0.00 1009.5
20260506082316 -17 0.0 0.0 0.00 0.00 0.00 1009.5
20260506081720 -17 0.0 0.0 0.00 0.00 0.00 1009.6
20260506081116 -17 0.0 0.0 0.00 0.00 0.00 1009.6
20260506080519 -17 0.0 0.0 0.00 0.00 0.00 1009.5
20260506073520 -17 0.0 0.0 0.00 0.00 0.00 1009.8
20260506072928 -17 0.0 0.0 0.00 0.00 0.00 1009.7
20260506072317 -17 0.0 0.0 0.00 0.00 0.00 1009.7
20260506071717 -17 0.0 0.0 0.00 0.00 0.00 1009.8
20260506071132 -17 0.0 0.0 0.00 0.00 0.00 1009.9
20260506070517 -17 0.0 0.0 0.00 0.00 0.00 1009.9
20260506062328 19 49 14.5 14.5 0.00 0.00 0.00 1010.3
20260506061941 19 49 14.5 22.5 0.00 0.00 0.00 66 1010.4
20260506061118 19 39 12.9 22.5 0.00 0.00 0.00 67 1010.5
20260506060623 19 32 12.9 22.5 0.00 0.00 0.00 66 1010.5
20260506051158 19 41 11.3 22.5 0.00 0.00 0.00 65 1010.7
20260506050531 19 42 9.7 22.5 0.00 0.00 0.00 64 1010.7
20260506044716 20 42 12.9 25.7 0.00 0.00 0.00 63 1010.7
20260506044117 20 38 17.7 25.7 0.00 0.00 0.00 63 1010.7
20260506043519 19 33 12.9 24.1 0.00 0.00 0.00 63 1010.8
20260506042919 19 35 9.7 20.9 0.00 0.00 0.00 64 1010.8
20260506042318 19 37 11.3 20.9 0.00 0.00 0.00 64 1010.8
20260506041715 18 36 8.0 20.9 0.00 0.00 0.00 65 1010.9
20260506041151 18 36 11.3 19.3 0.00 0.00 0.00 65 1010.8
20260506040522 18 29 4.8 14.5 0.00 0.00 0.00 65 1010.8
20260506040039 18 31 4.8 12.9 0.00 0.00 0.00 65 1010.9
20260506035319 18 32 6.4 12.9 0.00 0.00 0.00 64 1010.8
20260506034803 18 31 6.4 12.9 0.00 0.00 0.00 64 1010.9
20260506034215 18 31 4.8 11.3 0.00 0.00 0.00 64 1010.8
20260506033521 20 31 4.8 19.3 0.00 0.00 0.00 61 1010.7
20260506032316 20 35 9.7 22.5 0.00 0.00 0.00 59 1010.7
20260506031721 20 45 12.9 22.5 0.00 0.00 0.00 59 1010.7
20260506031418 20 51 12.9 20.9 0.00 0.00 0.00 59 1010.7
20260506030609 20 47 9.7 20.9 0.00 0.00 0.00 59 1010.6
20260506025925 20 43 9.7 20.9 0.00 0.00 0.00 59 1010.6
20260506025746 20 35 8.0 19.3 0.00 0.00 0.00 61 1010.6
20260506025324 20 40 9.7 19.3 0.00 0.00 0.00 59 1010.6
20260506024728 20 37 9.7 20.9 0.00 0.00 0.00 60 1010.7
20260506024314 20 35 8.0 19.3 0.00 0.00 0.00 61 1010.6
20260506023534 20 16 9.7 17.7 0.00 0.00 0.00 61 1010.6
20260506022719 19 30 9.7 17.7 0.00 0.00 0.00 62 1010.7
20260506021834 20 40 6.4 17.7 0.00 0.00 0.00 61 1010.7
20260506021118 20 30 6.4 16.1 0.00 0.00 0.00 61 1010.7
20260506020748 20 30 8.0 16.1 0.00 0.00 0.00 60 1010.7
20260506020020 20 22 9.7 16.1 0.00 0.00 0.00 60 1010.7
20260506015318 20 35 8.0 16.1 0.00 0.00 0.00 59 1010.6
20260506014717 20 28 4.8 16.1 0.00 0.00 0.00 59 1010.6
20260506014116 20 25 9.7 16.1 0.00 0.00 0.00 58 1010.5
20260506013527 20 28 8.0 14.5 0.00 0.00 0.00 58 1010.4
20260506012925 20 29 6.4 12.9 0.00 0.00 0.00 58 1010.4
20260506012317 20 36 8.0 12.9 0.00 0.00 0.00 57 1010.4
20260506011717 20 33 6.4 16.1 0.00 0.00 0.00 57 1010.3
20260506011117 21 30 8.0 16.1 0.00 0.00 0.00 56 1010.2
20260506010521 21 20 9.7 17.7 0.00 0.00 0.00 55 1010.1
20260506005916 21 33 8.0 19.3 0.00 0.00 0.00 54 1010.1
20260506005316 21 35 8.0 17.7 0.00 0.00 0.00 54 1009.9
20260506004715 21 22 8.0 17.7 0.00 0.00 0.00 53 1009.9
20260506004146 21 21 8.0 17.7 0.00 0.00 0.00 52 1009.8
20260506003521 22 26 8.0 19.3 0.00 0.00 0.00 50 1009.7
20260506002915 22 30 8.0 19.3 0.00 0.00 0.00 49 1009.7
20260506002316 22 39 8.0 22.5 0.00 0.00 0.00 48 1009.7
20260506001721 22 41 14.5 24.1 0.00 0.00 0.00 47 1009.6
20260506001116 23 34 11.3 24.1 0.00 0.00 0.00 47 1009.6